• Join FlightAware (Why Join?)
  • Login
  • US Flag 
09:01AM EDT


 

Airport Tracker/Info


-or-


 

Live Flight TrackerFlight Track Log ✈ N988QC ✈ 04-Jul-2013 ✈ KLZU - KTEB

Flight Track Log - Related Links

Times and Time Zones

All times are in EDT time to prevent confusion due to time zone crossing. See the N988QC flight status page for this flight to view local times or setup timezone preferences in your user account.

Time Position Orientation Groundspeed Altitude Reporting Facility
EDT Latitude Longitude Course Direction KTS MPH feet Rate Location/Type
07:04AM 33.9819 -83.9011 50° Northeast 185 213 3,300  Level Atlanta Center
07:05AM 33.9611 -83.8333 110° East 206 237 5,600 2,400 Climbing Atlanta Center
07:06AM 33.9464 -83.7608 104° East 217 250 8,200 2,580 Climbing Atlanta Center
07:07AM 33.9775 -83.6831 64° Northeast 222 255 10,800 2,460 Climbing Atlanta Center
07:08AM 34.0211 -83.6103 54° Northeast 236 272 13,200 1,860 Climbing Atlanta Center
07:09AM 34.0644 -83.5422 52° Northeast 282 325 14,600 2,100 Climbing Atlanta Center
07:10AM 34.1554 -83.3255 50° Northeast  Level FlightAware Approximate
07:10AM 34.1331 -83.4439 50° Northeast 313 360 17,500  Level Atlanta Center
07:11AM 34.1847 -83.3558 55° Northeast 319 367 19,500 1,980 Climbing Atlanta Center
07:12AM 34.2406 -83.2700 52° Northeast 319 367 21,500 1,620 Climbing Atlanta Center
07:13AM 34.3108 -83.1836 45° Northeast 338 389 22,800 1,260 Climbing Atlanta Center
07:14AM 34.3772 -83.1075 43° Northeast 356 410 24,100 1,380 Climbing Atlanta Center
07:15AM 34.4619 -83.0183 41° Northeast 367 422 25,600 1,740 Climbing Atlanta Center
07:16AM 34.5386 -82.9544 34° Northeast 362 417 27,600 1,800 Climbing Atlanta Center
07:17AM 34.6217 -82.8853 34° Northeast 362 417 29,300 1,500 Climbing Atlanta Center
07:18AM 34.7003 -82.8158 36° Northeast 356 410 30,700 1,140 Climbing Atlanta Center
07:19AM 34.7786 -82.7339 41° Northeast 351 404 31,600 960 Climbing Atlanta Center
07:20AM 34.8569 -82.6517 41° Northeast 364 419 32,700 960 Climbing Atlanta Center
07:21AM 34.9331 -82.5567 46° Northeast 376 433 33,600 780 Climbing Atlanta Center
07:22AM 34.9964 -82.4464 55° Northeast 384 442 34,300 720 Climbing Atlanta Center
07:23AM 35.0639 -82.3336 54° Northeast 400 460 35,100 360 Climbing Atlanta Center
07:24AM 35.1411 -82.2050 54° Northeast 425 489 35,100  Level Atlanta Center
07:25AM 35.2122 -82.0814 55° Northeast 432 497 35,100  Level Atlanta Center
07:26AM 35.2875 -81.9550 54° Northeast 452 520 35,100  Level Atlanta Center
07:27AM 35.3503 -81.8411 56° Northeast 452 520 35,100 -60 Level Atlanta Center
07:28AM 35.4250 -81.7144 54° Northeast 452 520 35,000  Descending Atlanta Center
07:29AM 35.4978 -81.5872 55° Northeast 458 527 35,100 600 Climbing Atlanta Center
07:30AM 35.5703 -81.4625 54° Northeast 458 527 36,200 900 Climbing Atlanta Center
07:31AM 35.6364 -81.3406 56° Northeast 453 521 36,900 360 Climbing Atlanta Center
07:32AM 35.7044 -81.2078 58° Northeast 448 516 37,000  Climbing Atlanta Center
07:33AM 35.7844 -81.0617 56° Northeast 457 526 37,000  Level Atlanta Center
07:34AM 35.8394 -80.9239 64° Northeast 449 517 37,000  Level Atlanta Center
07:35AM 35.8906 -80.8039 62° Northeast 444 511 37,000  Level Atlanta Center
07:36AM 35.9517 -80.6708 60° Northeast 439 505 37,000  Level Atlanta Center
07:37AM 36.0183 -80.5217 61° Northeast 439 505 37,000  Level Atlanta Center
07:39AM 36.1214 -80.3106 59° Northeast 427 491 37,000  Level Washington Center
07:40AM 36.1850 -80.1806 59° Northeast 432 497 37,000  Level Washington Center
07:41AM 36.2461 -80.0553 59° Northeast 432 497 37,000  Level Washington Center
07:42AM 36.3092 -79.9250 59° Northeast 426 490 37,000  Level Washington Center
07:43AM 36.3847 -79.8000 53° Northeast 438 504 37,000  Level Washington Center
07:44AM 36.4597 -79.6803 52° Northeast 438 504 37,000  Level Washington Center
07:45AM 36.5306 -79.5572 54° Northeast 438 504 37,000  Level Washington Center
07:46AM 36.5969 -79.4467 53° Northeast 444 511 37,000  Level Washington Center
07:47AM 36.6717 -79.3211 53° Northeast 444 511 37,000  Level Washington Center
07:48AM 36.7422 -79.1972 55° Northeast 444 511 37,000  Level Washington Center
07:49AM 36.8236 -79.0583 54° Northeast 444 511 37,000  Level Washington Center
07:50AM 36.8961 -78.9319 54° Northeast 444 511 37,000  Level Washington Center
07:51AM 36.9703 -78.8078 53° Northeast 444 511 37,000  Level Washington Center
07:52AM 37.0425 -78.6831 54° Northeast 444 511 37,000  Level Washington Center
07:53AM 37.1081 -78.5711 54° Northeast 444 511 37,000  Level Washington Center
07:54AM 37.1800 -78.4436 55° Northeast 444 511 37,000  Level Washington Center
07:55AM 37.2536 -78.3186 53° Northeast 444 511 37,000  Level Washington Center
07:56AM 37.3361 -78.1778 54° Northeast 444 511 37,000  Level Washington Center
07:57AM 37.3992 -78.0622 55° Northeast 444 511 37,000  Level Washington Center
07:58AM 37.4706 -77.9311 56° Northeast 449 517 37,000  Level Washington Center
07:59AM 37.5500 -77.8106 50° Northeast 449 517 37,000  Level Washington Center
08:00AM 37.6539 -77.7139 36° Northeast 449 517 37,000  Level Washington Center
08:01AM 37.7558 -77.6194 36° Northeast 449 517 37,000  Level Washington Center
08:02AM 37.8594 -77.5222 37° Northeast 455 524 37,000  Level Washington Center
08:03AM 37.9611 -77.4222 38° Northeast 455 524 37,000  Level Washington Center
08:04AM 38.0606 -77.3272 37° Northeast 455 524 37,000  Level Washington Center
08:05AM 38.1619 -77.2292 37° Northeast 455 524 37,000 -480 Level Washington Center
08:06AM 38.2636 -77.1281 38° Northeast 455 524 36,100 -1,020 Descending Washington Center
08:07AM 38.3669 -77.0297 37° Northeast 455 524 35,100 -600 Descending Washington Center
08:08AM 38.4722 -76.9256 38° Northeast 466 536 35,000 -60 Descending Washington Center
08:09AM 38.5903 -76.8081 38° Northeast 476 548 35,000 -1,020 Level Washington Center
08:10AM 38.6997 -76.7036 37° Northeast 481 554 33,000 -2,160 Descending Washington Center
08:11AM 38.8092 -76.5961 37° Northeast 486 559 30,700 -2,160 Descending Washington Center
08:12AM 38.9142 -76.4906 38° Northeast 486 559 28,700 -2,220 Descending Washington Center
08:13AM 39.0253 -76.3797 38° Northeast 491 565 26,400 -2,340 Descending Washington Center
08:14AM 39.1322 -76.2739 37° Northeast 491 565 24,100 -2,100 Descending Washington Center
08:15AM 39.2414 -76.1650 38° Northeast 491 565 22,200 -1,920 Descending Washington Center
08:16AM 39.4167 -75.9833 39° Northeast 453 521 19,100 -1,740 Descending Philadelphia TRACON
08:17AM 39.5000 -75.9000 38° Northeast 438 504 17,700 -1,740 Descending Philadelphia TRACON
08:19AM 39.6167 -75.7833 38° Northeast 426 490 15,300 -1,800 Descending Philadelphia TRACON
08:20AM 39.7000 -75.7000 38° Northeast 373 429 13,800 -1,320 Descending Philadelphia TRACON
08:20AM 39.7667 -75.6333 38° Northeast 357 411 13,000 -480 Descending Philadelphia TRACON
08:22AM 39.8667 -75.5333 37° Northeast 360 414 12,900  Descending Philadelphia TRACON
08:23AM 39.9333 -75.4667 37° Northeast 385 443 13,000  Climbing Philadelphia TRACON
08:24AM 40.0167 -75.3833 37° Northeast 381 438 13,000  Level Philadelphia TRACON
08:24AM 40.1000 -75.3167 31° Northeast 381 438 13,000 -120 Level Philadelphia TRACON
08:26AM 40.2000 -75.2333 32° Northeast 370 426 12,800 -960 Descending Philadelphia TRACON
08:26AM 40.2667 -75.1667 37° Northeast 327 376 11,100 -1,560 Descending Philadelphia TRACON
08:27AM 40.3333 -75.1000 37° Northeast 332 382 10,100 -1,620 Descending New York TRACON
08:28AM 40.3833 -75.0000 57° Northeast 306 352 7,900 -1,920 Descending New York TRACON
08:29AM 40.4333 -74.9167 52° Northeast 299 344 6,300 -1,740 Descending New York TRACON
08:30AM 40.4667 -74.8333 62° Northeast 305 351 4,600 -1,680 Descending New York TRACON
08:31AM 40.5167 -74.7500 52° Northeast 299 344 3,200 -900 Descending New York TRACON
08:32AM 40.5500 -74.6500 66° East 279 321 3,000 -120 Descending New York TRACON
08:33AM 40.6000 -74.5667 52° Northeast 289 333 3,000  Level New York TRACON
08:34AM 40.6333 -74.5000 57° Northeast 293 337 3,000  Level New York TRACON
08:35AM 40.6833 -74.4167 52° Northeast 294 338 3,000  Level New York TRACON
08:36AM 40.7167 -74.3167 66° East 295 339 3,000  Level New York TRACON
08:37AM 40.7667 -74.2333 52° Northeast 270 311 3,000 -120 Level New York TRACON
08:38AM 40.8000 -74.1667 57° Northeast 249 287 2,800 -600 Descending New York TRACON
08:39AM 40.8333 -74.1000 57° Northeast 218 251 1,800 -900 Descending New York TRACON
08:40AM 40.8667 -74.0667 37° Northeast 153 176 1,200 -840 Descending New York TRACON
08:41AM 40.8667 -74.0500 90° East 145 167 300 -900 Descending New York TRACON
08:43AM 40.8500 -74.0500 180° South  Level FlightAware Approximate